User: anonymous   Login
Location: Unspecified
(0.0000°N, 0.0000°E)
Time: 14:52:06
(UTC+00:00)
Language:

SEEDS - Orbit

View from above orbital plane
View from above orbital plane
View from above satellite
View from above satellite

Ground track
Ground track

The orbit data is extracted from the following two-line orbital elements,

1 32791U 08021J   18196.86821367  .00000325  00000-0  38590-4 0  9998
2 32791  97.5349 213.0996 0011843 285.1455  74.8454 14.90585649553789
Epoch (UTC): 15 July 2018 20:50:13
Eccentricity: 0.0011843
inclination: 97.5349°
perigee height: 588 km
apogee height: 604 km
right ascension of ascending node: 213.0996°
argument of perigee: 285.1455°
revolutions per day: 14.90585649
mean anomaly at epoch: 74.8454°
orbit number at epoch: 55378

The dashed part of the orbit path shows where the satellite is in the earth's shadow,  

DLR